• In Deutschland
  • Länderverzeichnis
  • Für 7 Tage
  • Wassertemperatur
  • Satellitenkarten
  • Wetterkarte
  • Widgets
  • user-avatar
    Anmelden

    Stündliche Wetter Canberra

    Heute, 23 April, Sonntag

    Zeit Temperatur Niederschläge Wind Luftdruck Luftfeuchtigkeit
    00:00 +10°C° 0 mm 1 m/S 713 mmHg 93%
    01:00 +10°C° 0 mm 1 m/S 713 mmHg 93%
    02:00 +10°C° 0 mm 1 m/S 713 mmHg 93%
    03:00 +10°C° 0 mm 1 m/S 713 mmHg 92%
    04:00 +9°C° 0 mm 1 m/S 713 mmHg 93%
    05:00 +10°C° 0 mm 1 m/S 713 mmHg 92%
    06:00 +10°C° 0 mm 1 m/S 713 mmHg 92%
    07:00 +10°C° 0 mm 1 m/S 713 mmHg 92%
    08:00 +13°C° 0 mm 1 m/S 714 mmHg 78%
    09:00 +18°C° 0 mm 1 m/S 714 mmHg 65%
    10:00 +21°C° 0 mm 1 m/S 715 mmHg 52%
    11:00 +23°C° 0 mm 1 m/S 715 mmHg 48%
    12:00 +24°C° 0 mm 1 m/S 715 mmHg 44%
    13:00 +25°C° 0 mm 1 m/S 714 mmHg 40%
    14:00 +24°C° 0,1 mm 1 m/S 714 mmHg 43%
    15:00 +23°C° 0,1 mm 1 m/S 714 mmHg 46%
    16:00 +21°C° 0 mm 1 m/S 714 mmHg 53%
    17:00 +19°C° 0,1 mm 1 m/S 713 mmHg 65%
    18:00 +15°C° 0,1 mm 1 m/S 713 mmHg 76%
    19:00 +13°C° 0,1 mm 1 m/S 713 mmHg 88%
    20:00 +12°C° 0 mm 1 m/S 713 mmHg 90%
    21:00 +11°C° 0 mm 1 m/S 713 mmHg 92%
    22:00 +11°C° 0 mm 1 m/S 713 mmHg 94%
    23:00 +10°C° 0 mm 1 m/S 713 mmHg 95%

    Morgen, 24 April, Montag

    Zeit Temperatur Niederschläge Wind Luftdruck Luftfeuchtigkeit
    00:00 +9°C° 0 mm 0 m/S 713 mmHg 96%
    01:00 +9°C° 0 mm 0 m/S 713 mmHg 97%
    02:00 +8°C° 0 mm 0 m/S 712 mmHg 97%
    03:00 +8°C° 0 mm 0 m/S 712 mmHg 97%
    04:00 +8°C° 0 mm 0 m/S 712 mmHg 98%
    05:00 +8°C° 0 mm 0 m/S 712 mmHg 97%
    06:00 +8°C° 0 mm 0 m/S 712 mmHg 97%
    07:00 +8°C° 0 mm 0 m/S 712 mmHg 97%
    08:00 +12°C° 0 mm 0 m/S 713 mmHg 84%
    09:00 +16°C° 0 mm 1 m/S 713 mmHg 71%
    10:00 +21°C° 0 mm 1 m/S 713 mmHg 57%
    11:00 +22°C° 0 mm 1 m/S 713 mmHg 51%
    12:00 +23°C° 0 mm 1 m/S 712 mmHg 45%
    13:00 +24°C° 0 mm 2 m/S 712 mmHg 39%
    14:00 +24°C° 0 mm 2 m/S 711 mmHg 41%
    15:00 +23°C° 0 mm 2 m/S 711 mmHg 43%
    16:00 +23°C° 0 mm 2 m/S 710 mmHg 45%
    17:00 +19°C° 0 mm 2 m/S 710 mmHg 56%
    18:00 +16°C° 0 mm 1 m/S 710 mmHg 67%
    19:00 +13°C° 0 mm 1 m/S 709 mmHg 78%
    20:00 +13°C° 0 mm 1 m/S 709 mmHg 79%
    21:00 +13°C° 0 mm 1 m/S 709 mmHg 80%
    22:00 +12°C° 0 mm 1 m/S 709 mmHg 81%
    23:00 +13°C° 0 mm 1 m/S 709 mmHg 79%

    übermorgen, 25 April, Dienstag

    Zeit Temperatur Niederschläge Wind Luftdruck Luftfeuchtigkeit
    00:00 +13°C° 0 mm 1 m/S 709 mmHg 77%
    01:00 +14°C° 0 mm 1 m/S 708 mmHg 75%
    02:00 +13°C° 0 mm 1 m/S 708 mmHg 80%
    03:00 +13°C° 0 mm 1 m/S 707 mmHg 84%
    04:00 +12°C° 0 mm 1 m/S 707 mmHg 88%
    05:00 +13°C° 0,1 mm 2 m/S 707 mmHg 88%
    06:00 +13°C° 0,1 mm 2 m/S 706 mmHg 88%
    07:00 +14°C° 0,1 mm 2 m/S 706 mmHg 88%
    08:00 +14°C° 0,1 mm 3 m/S 706 mmHg 83%
    09:00 +17°C° 0,1 mm 3 m/S 706 mmHg 77%
    10:00 +18°C° 0,1 mm 4 m/S 706 mmHg 72%
    11:00 +18°C° 0,7 mm 4 m/S 706 mmHg 77%
    12:00 +17°C° 0,7 mm 4 m/S 705 mmHg 82%
    13:00 +16°C° 0,7 mm 5 m/S 704 mmHg 86%
    14:00 +15°C° 0,5 mm 4 m/S 704 mmHg 88%
    15:00 +16°C° 0,5 mm 3 m/S 704 mmHg 90%
    16:00 +14°C° 0,5 mm 3 m/S 703 mmHg 91%
    17:00 +14°C° 0 mm 3 m/S 703 mmHg 92%
    18:00 +13°C° 0 mm 3 m/S 703 mmHg 93%
    19:00 +13°C° 0 mm 3 m/S 703 mmHg 94%
    20:00 +13°C° 0 mm 3 m/S 704 mmHg 94%
    21:00 +12°C° 0 mm 3 m/S 704 mmHg 93%
    22:00 +12°C° 0 mm 3 m/S 704 mmHg 93%
    23:00 +12°C° 0 mm 3 m/S 703 mmHg 93%

    26 April, Mittwoch

    Zeit Temperatur Niederschläge Wind Luftdruck Luftfeuchtigkeit
    00:00 +12°C° 0 mm 3 m/S 703 mmHg 93%
    01:00 +11°C° 0 mm 3 m/S 703 mmHg 94%
    02:00 +11°C° 0 mm 3 m/S 702 mmHg 93%
    03:00 +11°C° 0 mm 3 m/S 702 mmHg 92%
    04:00 +10°C° 0 mm 3 m/S 702 mmHg 92%
    05:00 +10°C° 0 mm 3 m/S 702 mmHg 92%
    06:00 +10°C° 0 mm 3 m/S 702 mmHg 92%
    07:00 +9°C° 0 mm 3 m/S 702 mmHg 92%
    08:00 +11°C° 0,1 mm 4 m/S 702 mmHg 83%
    09:00 +12°C° 0,1 mm 5 m/S 702 mmHg 74%
    10:00 +13°C° 0,1 mm 6 m/S 702 mmHg 64%
    11:00 +11°C° 0,2 mm 6 m/S 702 mmHg 64%
    12:00 +11°C° 0,2 mm 6 m/S 702 mmHg 65%
    13:00 +10°C° 0,2 mm 5 m/S 703 mmHg 65%
    14:00 +10°C° 0,1 mm 5 m/S 703 mmHg 64%
    15:00 +9°C° 0,1 mm 5 m/S 703 mmHg 64%
    16:00 +10°C° 0,1 mm 4 m/S 704 mmHg 63%
    17:00 +8°C° 0 mm 4 m/S 704 mmHg 67%
    18:00 +8°C° 0 mm 3 m/S 705 mmHg 72%
    19:00 +6°C° 0 mm 2 m/S 706 mmHg 76%
    20:00 +6°C° 0 mm 2 m/S 706 mmHg 76%
    21:00 +5°C° 0 mm 2 m/S 707 mmHg 77%
    22:00 +4°C° 0 mm 2 m/S 707 mmHg 77%
    23:00 +4°C° 0 mm 2 m/S 707 mmHg 77%

    27 April, Donnerstag

    Zeit Temperatur Niederschläge Wind Luftdruck Luftfeuchtigkeit
    00:00 +3°C° 0 mm 2 m/S 707 mmHg 78%
    01:00 +3°C° 0 mm 2 m/S 707 mmHg 78%
    02:00 +3°C° 0 mm 2 m/S 707 mmHg 79%
    03:00 +2°C° 0 mm 2 m/S 707 mmHg 81%
    04:00 +2°C° 0 mm 2 m/S 707 mmHg 82%
    05:00 +2°C° 0 mm 2 m/S 708 mmHg 83%
    06:00 +2°C° 0 mm 2 m/S 708 mmHg 84%
    07:00 +2°C° 0 mm 2 m/S 708 mmHg 86%
    08:00 +3°C° 0 mm 3 m/S 709 mmHg 73%
    09:00 +5°C° 0 mm 4 m/S 709 mmHg 61%
    10:00 +8°C° 0 mm 4 m/S 710 mmHg 48%
    11:00 +8°C° 0 mm 4 m/S 710 mmHg 45%
    12:00 +10°C° 0 mm 4 m/S 710 mmHg 42%
    13:00 +11°C° 0 mm 4 m/S 710 mmHg 39%
    14:00 +11°C° 0 mm 4 m/S 710 mmHg 41%
    15:00 +11°C° 0 mm 4 m/S 710 mmHg 42%
    16:00 +10°C° 0 mm 3 m/S 710 mmHg 43%
    17:00 +8°C° 0 mm 3 m/S 710 mmHg 52%
    18:00 +7°C° 0 mm 2 m/S 710 mmHg 60%
    19:00 +5°C° 0 mm 2 m/S 711 mmHg 69%
    20:00 +4°C° 0 mm 2 m/S 711 mmHg 73%
    21:00 +3°C° 0 mm 2 m/S 711 mmHg 76%
    22:00 +3°C° 0 mm 2 m/S 711 mmHg 80%
    23:00 +3°C° 0 mm 2 m/S 711 mmHg 81%

    28 April, Freitag

    Zeit Temperatur Niederschläge Wind Luftdruck Luftfeuchtigkeit
    00:00 +2°C° 0 mm 2 m/S 711 mmHg 83%
    01:00 +3°C° 0 mm 1 m/S 711 mmHg 84%
    02:00 +3°C° 0 mm 1 m/S 711 mmHg 85%
    03:00 +3°C° 0 mm 1 m/S 711 mmHg 85%
    04:00 +3°C° 0 mm 1 m/S 711 mmHg 86%
    05:00 +3°C° 0 mm 1 m/S 711 mmHg 85%
    06:00 +3°C° 0 mm 1 m/S 711 mmHg 84%
    07:00 +3°C° 0 mm 1 m/S 712 mmHg 84%
    08:00 +6°C° 0 mm 1 m/S 712 mmHg 71%
    09:00 +10°C° 0 mm 1 m/S 712 mmHg 59%
    10:00 +13°C° 0 mm 1 m/S 713 mmHg 47%
    11:00 +14°C° 0 mm 2 m/S 712 mmHg 44%
    12:00 +15°C° 0 mm 2 m/S 712 mmHg 40%
    13:00 +17°C° 0 mm 2 m/S 711 mmHg 37%
    14:00 +16°C° 0 mm 2 m/S 711 mmHg 41%
    15:00 +16°C° 0 mm 2 m/S 710 mmHg 44%
    16:00 +14°C° 0 mm 3 m/S 710 mmHg 47%
    17:00 +13°C° 0 mm 3 m/S 710 mmHg 58%
    18:00 +12°C° 0 mm 2 m/S 710 mmHg 68%
    19:00 +9°C° 0 mm 2 m/S 710 mmHg 79%
    20:00 +8°C° 0 mm 2 m/S 710 mmHg 83%
    21:00 +8°C° 0 mm 2 m/S 710 mmHg 87%
    22:00 +8°C° 0 mm 2 m/S 710 mmHg 91%
    23:00 +8°C° 0 mm 2 m/S 709 mmHg 91%
    Mehr zeigen